Denver Centennial, CO

1:40 AM MDT on June 25, 2017 (GMT -0600)
Centennial

Weather History for KAPA - June, 2013

Change the Weather History Date:

Saturday, June 8, 2013

  Actual Average Record
Temperature  
Mean Temperature 63 °F -  
Max Temperature 75 °F 75 °F 93 °F (2002)
Min Temperature 51 °F 47 °F 34 °F (2007)
Degree Days  
Heating Degree Days 2    
Month to date heating degree days 36  
Growing Degree Days 16 (Base 50)    
Moisture  
Dew Point 40 °F    
Average Humidity 40    
Maximum Humidity 52    
Minimum Humidity 27    
Precipitation  
Precipitation 0.00 in - - ()
Month to date precipitation 0.26  
Year to date precipitation 5.02  
Sea Level Pressure  
Sea Level Pressure 29.78 in    
Wind  
Wind Speed 10 mph (NNE)    
Max Wind Speed 26 mph    
Max Gust Speed 40 mph    
Visibility 10 miles    
Events      
Averages and records for this station are not official NWS values.
T = Trace of Precipitation, MM = Missing Value Source: NWS Daily Summary

Daily Weather History Graph

Daily Weather History Graph

Search for Another Location

Airport or City:

Trip Planner

Search our weather history database for the weather conditions in past years. The results will help you decide how hot, cold, wet, or windy it might be!

Date:

Astronomy

Jun. 08, 2013 Rise Set
Actual Time 5:31 AM MDT 8:25 PM MDT
Civil Twilight 4:59 AM MDT 8:57 PM MDT
Nautical Twilight 4:18 AM MDT 9:38 PM MDT
Astronomical Twilight 3:32 AM MDT 10:25 PM MDT
Moon 5:41 AM MDT (6/8) 8:30 PM MDT (6/8)
Length of Visible Light 15h 58m
Length of Day
14h 53m
New Moon, 0% of the Moon is Illuminated
Jun 8
New Moon
Jun 16
First Quarter
Jun 23
Full
Jun 29
Last Quarter
Jul 8
New

Hourly Weather History & Observations

Time (MDT) Temp. Dew Point Humidity Pressure Visibility Wind Dir Wind Speed Gust Speed Precip Events Conditions
12:53 AM 62.1 °F 37.9 °F 41% 29.66 in 10.0 mi SSW 9.2 mph - N/A   Partly Cloudy
1:53 AM 62.1 °F 37.0 °F 39% 29.65 in 10.0 mi South 9.2 mph - N/A   Scattered Clouds
2:53 AM 57.9 °F 37.0 °F 46% 29.68 in 10.0 mi South 3.5 mph - N/A   Partly Cloudy
3:53 AM 57.0 °F 37.0 °F 47% 29.66 in 10.0 mi SSW 9.2 mph - N/A   Scattered Clouds
4:53 AM 62.1 °F 35.1 °F 37% 29.63 in 10.0 mi SW 9.2 mph - N/A   Scattered Clouds
5:53 AM 64.0 °F 35.1 °F 34% 29.63 in 10.0 mi SW 11.5 mph - N/A   Mostly Cloudy
6:53 AM 66.0 °F 37.9 °F 36% 29.66 in 10.0 mi WSW 8.1 mph - N/A   Scattered Clouds
7:53 AM 72.0 °F 39.0 °F 30% 29.67 in 10.0 mi NW 11.5 mph - N/A   Scattered Clouds
8:34 AM 66.2 °F 42.8 °F 43% 29.92 in 10.0 mi NE 25.3 mph 40.3 mph N/A   Scattered Clouds
8:53 AM 64.9 °F 45.0 °F 48% 29.78 in 10.0 mi NNE 18.4 mph 25.3 mph N/A   Scattered Clouds
9:53 AM 64.9 °F 46.9 °F 52% 29.80 in 10.0 mi NNE 15.0 mph 25.3 mph N/A   Scattered Clouds
10:53 AM 66.0 °F 46.9 °F 50% 29.82 in 10.0 mi North 16.1 mph - N/A   Scattered Clouds
11:53 AM 68.0 °F 46.0 °F 45% 29.82 in 10.0 mi North 10.4 mph - N/A   Mostly Cloudy
12:53 PM 71.1 °F 44.1 °F 38% 29.81 in 10.0 mi NNW 13.8 mph 18.4 mph N/A   Mostly Cloudy
1:53 PM 73.0 °F 42.1 °F 33% 29.80 in 10.0 mi North 13.8 mph 20.7 mph N/A   Mostly Cloudy
2:53 PM 75.0 °F 39.9 °F 28% 29.80 in 10.0 mi North 12.7 mph 20.7 mph N/A   Scattered Clouds
3:53 PM 75.0 °F 39.0 °F 27% 29.80 in 10.0 mi NE 10.4 mph - N/A   Scattered Clouds
4:53 PM 73.0 °F 39.0 °F 29% 29.80 in 10.0 mi NE 10.4 mph 16.1 mph N/A   Scattered Clouds
5:53 PM 73.0 °F 39.0 °F 29% 29.80 in 10.0 mi NNE 11.5 mph - N/A   Scattered Clouds
6:53 PM 72.0 °F 37.9 °F 29% 29.83 in 10.0 mi North 9.2 mph - N/A   Scattered Clouds
7:53 PM 70.0 °F 36.0 °F 29% 29.83 in 10.0 mi ENE 6.9 mph - N/A   Scattered Clouds
8:53 PM 64.9 °F 37.0 °F 36% 29.91 in 10.0 mi East 9.2 mph - N/A   Scattered Clouds
9:53 PM 61.0 °F 39.0 °F 44% 29.94 in 10.0 mi SE 8.1 mph - N/A   Partly Cloudy
10:53 PM 62.1 °F 37.9 °F 41% 29.95 in 10.0 mi SSE 8.1 mph - N/A   Partly Cloudy
11:53 PM 57.9 °F 39.0 °F 49% 29.96 in 10.0 mi Calm Calm - N/A   Partly Cloudy